Time,TemperatureF,DewpointF,PressureIn,WindDirection,WindDirectionDegrees,WindSpeedMPH,WindSpeedGustMPH,Humidity,HourlyPrecipIn,Conditions,Clouds,dailyrainin,SolarRadiationWatts/m^2,SoftwareType,DateUTC
2013-05-01 00:21:00,67.0,18.0,29.91,East,90,7.0,16.0,15,-99.99,,,-99.99,0.000000,,2013-05-01 07:21:00,
2013-05-01 02:21:00,65.0,13.0,29.92,ENE,67,5.0,9.0,13,-99.99,,,-99.99,0.000000,,2013-05-01 09:21:00,
2013-05-01 03:22:00,65.0,9.0,29.92,East,83,3.0,5.0,11,-99.99,,,-99.99,0.000000,,2013-05-01 10:22:00,
2013-05-01 04:22:00,62.0,11.0,29.92,NW,321,4.0,7.0,13,-99.99,,,-99.99,0.000000,,2013-05-01 11:22:00,
2013-05-01 04:32:00,62.0,11.0,29.92,NW,321,4.0,7.0,13,-99.99,,,-99.99,0.000000,,2013-05-01 11:32:00,
2013-05-01 04:40:00,58.0,30.0,29.93,SW,230,1.0,2.0,34,-99.99,,,-99.99,0.000000,,2013-05-01 11:40:00,
2013-05-01 05:21:00,58.0,30.0,29.93,SW,230,1.0,2.0,34,-99.99,,,-99.99,0.000000,,2013-05-01 12:21:00,
2013-05-01 05:31:00,58.0,30.0,29.93,SW,230,1.0,2.0,34,-99.99,,,-99.99,0.000000,,2013-05-01 12:31:00,
2013-05-01 06:40:00,53.0,39.0,29.97,East,93,0.0,1.0,58,-99.99,,,-99.99,15.000000,,2013-05-01 13:40:00,
2013-05-01 07:21:00,53.0,39.0,29.97,East,93,0.0,1.0,58,-99.99,,,-99.99,15.000000,,2013-05-01 14:21:00,
2013-05-01 07:31:00,53.0,39.0,29.97,East,93,0.0,1.0,58,-99.99,,,-99.99,15.000000,,2013-05-01 14:31:00,
2013-05-01 07:40:00,56.0,40.0,29.99,SE,146,3.0,4.0,54,-99.99,,,-99.99,291.000000,,2013-05-01 14:40:00,
2013-05-01 08:33:00,56.0,40.0,29.99,SE,146,3.0,4.0,54,-99.99,,,-99.99,291.000000,,2013-05-01 15:33:00,
2013-05-01 08:40:00,59.0,41.0,30.02,South,188,3.0,5.0,52,-99.99,,,-99.99,531.000000,,2013-05-01 15:40:00,
2013-05-01 09:22:00,59.0,41.0,30.02,South,188,3.0,5.0,52,-99.99,,,-99.99,531.000000,,2013-05-01 16:22:00,
2013-05-01 09:31:00,59.0,41.0,30.02,South,188,3.0,5.0,52,-99.99,,,-99.99,531.000000,,2013-05-01 16:31:00,
2013-05-01 09:40:00,61.0,41.0,30.03,WSW,250,2.0,4.0,47,-99.99,,,-99.99,740.000000,,2013-05-01 16:40:00,
2013-05-01 10:21:00,61.0,41.0,30.03,WSW,250,2.0,4.0,47,-99.99,,,-99.99,740.000000,,2013-05-01 17:21:00,
2013-05-01 10:31:00,61.0,41.0,30.03,WSW,250,2.0,4.0,47,-99.99,,,-99.99,740.000000,,2013-05-01 17:31:00,
2013-05-01 10:40:00,63.0,47.0,30.05,West,281,3.0,4.0,56,-99.99,,,-99.99,914.000000,,2013-05-01 17:40:00,
2013-05-01 11:32:00,63.0,47.0,30.05,West,281,3.0,4.0,56,-99.99,,,-99.99,914.000000,,2013-05-01 18:32:00,
2013-05-01 11:40:00,59.0,49.0,30.08,WSW,250,3.0,6.0,70,-99.99,,,-99.99,1012.000000,,2013-05-01 18:40:00,
2013-05-01 12:22:00,59.0,49.0,30.08,WSW,250,3.0,6.0,70,-99.99,,,-99.99,1012.000000,,2013-05-01 19:22:00,
2013-05-01 12:32:00,59.0,49.0,30.08,WSW,250,3.0,6.0,70,-99.99,,,-99.99,1012.000000,,2013-05-01 19:32:00,
2013-05-01 12:40:00,61.0,50.0,30.08,WNW,285,4.0,7.0,67,-99.99,,,-99.99,1052.000000,,2013-05-01 19:40:00,
2013-05-01 13:21:00,61.0,50.0,30.08,WNW,285,4.0,7.0,67,-99.99,,,-99.99,1052.000000,,2013-05-01 20:21:00,
2013-05-01 13:32:00,61.0,50.0,30.08,WNW,285,4.0,7.0,67,-99.99,,,-99.99,1052.000000,,2013-05-01 20:32:00,
2013-05-01 13:40:00,63.0,50.0,30.09,WNW,284,3.0,5.0,64,-99.99,,,-99.99,1037.000000,,2013-05-01 20:40:00,
2013-05-01 14:22:00,63.0,50.0,30.09,WNW,284,3.0,5.0,64,-99.99,,,-99.99,1037.000000,,2013-05-01 21:22:00,
2013-05-01 14:32:00,63.0,50.0,30.09,WNW,284,3.0,5.0,64,-99.99,,,-99.99,1037.000000,,2013-05-01 21:32:00,
2013-05-01 14:40:00,67.0,44.0,30.10,West,281,4.0,7.0,44,-99.99,,,-99.99,957.000000,,2013-05-01 21:40:00,
2013-05-01 15:23:00,67.0,44.0,30.10,West,281,4.0,7.0,44,-99.99,,,-99.99,957.000000,,2013-05-01 22:23:00,
2013-05-01 15:33:00,67.0,44.0,30.10,West,281,4.0,7.0,44,-99.99,,,-99.99,957.000000,,2013-05-01 22:33:00,
2013-05-01 15:40:00,68.0,41.0,30.10,West,274,4.0,5.0,38,-99.99,,,-99.99,829.000000,,2013-05-01 22:40:00,
2013-05-01 16:21:00,68.0,41.0,30.10,West,274,4.0,5.0,38,-99.99,,,-99.99,829.000000,,2013-05-01 23:21:00,
2013-05-01 16:32:00,68.0,41.0,30.10,West,274,4.0,5.0,38,-99.99,,,-99.99,829.000000,,2013-05-01 23:32:00,
2013-05-01 16:40:00,67.0,47.0,30.10,WNW,290,4.0,6.0,48,-99.99,,,-99.99,655.000000,,2013-05-01 23:40:00,
2013-05-01 17:21:00,67.0,47.0,30.10,WNW,290,4.0,6.0,48,-99.99,,,-99.99,655.000000,,2013-05-02 00:21:00,
2013-05-01 17:32:00,67.0,47.0,30.10,WNW,290,4.0,6.0,48,-99.99,,,-99.99,655.000000,,2013-05-02 00:32:00,
2013-05-01 17:40:00,68.0,45.0,30.11,WNW,301,2.0,4.0,43,-99.99,,,-99.99,441.000000,,2013-05-02 00:40:00,
2013-05-01 18:21:00,68.0,45.0,30.11,WNW,301,2.0,4.0,43,-99.99,,,-99.99,441.000000,,2013-05-02 01:21:00,
2013-05-01 18:32:00,68.0,45.0,30.11,WNW,301,2.0,4.0,43,-99.99,,,-99.99,441.000000,,2013-05-02 01:32:00,
2013-05-01 18:40:00,70.0,45.0,30.11,NW,313,2.0,4.0,40,-99.99,,,-99.99,217.000000,,2013-05-02 01:40:00,
2013-05-01 19:32:00,70.0,45.0,30.11,NW,313,2.0,4.0,40,-99.99,,,-99.99,217.000000,,2013-05-02 02:32:00,
2013-05-01 19:40:00,69.0,35.0,30.12,NNE,30,4.0,5.0,28,-99.99,,,-99.99,39.000000,,2013-05-02 02:40:00,
2013-05-01 20:22:00,69.0,35.0,30.12,NNE,30,4.0,5.0,28,-99.99,,,-99.99,39.000000,,2013-05-02 03:22:00,
2013-05-01 20:32:00,69.0,35.0,30.12,NNE,30,4.0,5.0,28,-99.99,,,-99.99,39.000000,,2013-05-02 03:32:00,
2013-05-01 20:40:00,68.0,37.0,30.13,NE,54,6.0,7.0,32,-99.99,,,-99.99,0.000000,,2013-05-02 03:40:00,
2013-05-01 21:23:00,68.0,37.0,30.13,NE,54,6.0,7.0,32,-99.99,,,-99.99,0.000000,,2013-05-02 04:23:00,
2013-05-01 21:33:00,68.0,37.0,30.13,NE,54,6.0,7.0,32,-99.99,,,-99.99,0.000000,,2013-05-02 04:33:00,
2013-05-01 22:22:00,71.0,32.0,30.15,ESE,102,4.0,5.0,24,-99.99,,,-99.99,0.000000,,2013-05-02 05:22:00,
2013-05-01 22:40:00,73.0,28.0,30.16,SE,134,1.0,2.0,19,-99.99,,,-99.99,0.000000,,2013-05-02 05:40:00,